Hourly Weather Mikolaiv

Today, 25 September, Friday

Time Temperature Precipitation Wind Pressure Humidity
00:00 +16°C° 0 mm 0 mps 758 mmHg 75%
01:00 +15°C° 0 mm 0 mps 758 mmHg 76%
02:00 +15°C° 0 mm 0 mps 758 mmHg 78%
03:00 +15°C° 0 mm 0 mps 758 mmHg 78%
04:00 +15°C° 0 mm 0 mps 758 mmHg 79%
05:00 +14°C° 0 mm 0 mps 758 mmHg 80%
06:00 +18°C° 0 mm 1 mps 757 mmHg 73%
07:00 +20°C° 0 mm 1 mps 757 mmHg 65%
08:00 +22°C° 0 mm 1 mps 757 mmHg 54%
09:00 +24°C° 0 mm 2 mps 757 mmHg 48%
10:00 +26°C° 0 mm 2 mps 757 mmHg 42%
11:00 +27°C° 0 mm 3 mps 757 mmHg 37%
12:00 +28°C° 0 mm 3 mps 757 mmHg 35%
13:00 +29°C° 0 mm 3 mps 756 mmHg 34%
14:00 +30°C° 0 mm 3 mps 756 mmHg 33%
15:00 +29°C° 0 mm 3 mps 756 mmHg 36%
16:00 +28°C° 0 mm 3 mps 755 mmHg 38%
17:00 +27°C° 0 mm 3 mps 755 mmHg 41%
18:00 +25°C° 0 mm 2 mps 755 mmHg 49%
19:00 +23°C° 0 mm 2 mps 755 mmHg 57%
20:00 +20°C° 0 mm 2 mps 755 mmHg 64%
21:00 +20°C° 0 mm 2 mps 755 mmHg 68%
22:00 +19°C° 0 mm 2 mps 755 mmHg 71%
23:00 +20°C° 0 mm 1 mps 755 mmHg 74%

Tomorrow, 26 September, Saturday

Time Temperature Precipitation Wind Pressure Humidity
00:00 +18°C° 0 mm 2 mps 755 mmHg 76%
01:00 +18°C° 0 mm 2 mps 754 mmHg 79%
02:00 +18°C° 0 mm 2 mps 754 mmHg 82%
03:00 +17°C° 0 mm 2 mps 754 mmHg 84%
04:00 +17°C° 0 mm 3 mps 754 mmHg 85%
05:00 +17°C° 0 mm 3 mps 754 mmHg 87%
06:00 +18°C° 0 mm 3 mps 754 mmHg 81%
07:00 +20°C° 0 mm 3 mps 753 mmHg 75%
08:00 +21°C° 0 mm 4 mps 753 mmHg 69%
09:00 +23°C° 0 mm 4 mps 753 mmHg 61%
10:00 +27°C° 0 mm 5 mps 753 mmHg 53%
11:00 +29°C° 0 mm 5 mps 753 mmHg 44%
12:00 +29°C° 0 mm 6 mps 753 mmHg 42%
13:00 +30°C° 0 mm 6 mps 752 mmHg 40%
14:00 +32°C° 0 mm 7 mps 752 mmHg 38%
15:00 +30°C° 0 mm 6 mps 752 mmHg 42%
16:00 +28°C° 0 mm 6 mps 752 mmHg 46%
17:00 +27°C° 0 mm 5 mps 752 mmHg 51%
18:00 +26°C° 0 mm 5 mps 752 mmHg 57%
19:00 +23°C° 0 mm 5 mps 752 mmHg 64%
20:00 +22°C° 0 mm 5 mps 752 mmHg 70%
21:00 +21°C° 0 mm 5 mps 752 mmHg 71%
22:00 +21°C° 0 mm 5 mps 752 mmHg 72%
23:00 +20°C° 0 mm 5 mps 751 mmHg 72%

Day after tomorrow, 27 September, Sunday

Time Temperature Precipitation Wind Pressure Humidity
00:00 +20°C° 0 mm 5 mps 751 mmHg 70%
01:00 +21°C° 0 mm 5 mps 751 mmHg 68%
02:00 +21°C° 0 mm 5 mps 751 mmHg 66%
03:00 +21°C° 0.1 mm 5 mps 751 mmHg 66%
04:00 +21°C° 0.1 mm 6 mps 750 mmHg 66%
05:00 +21°C° 0.1 mm 6 mps 750 mmHg 67%
06:00 +22°C° 0.5 mm 6 mps 751 mmHg 67%
07:00 +22°C° 0.5 mm 7 mps 751 mmHg 67%
08:00 +23°C° 0.5 mm 7 mps 751 mmHg 67%
09:00 +24°C° 1.7 mm 6 mps 752 mmHg 63%
10:00 +26°C° 1.7 mm 6 mps 752 mmHg 59%
11:00 +26°C° 1.7 mm 5 mps 753 mmHg 55%
12:00 +26°C° 0 mm 6 mps 753 mmHg 48%
13:00 +27°C° 0 mm 7 mps 753 mmHg 42%
14:00 +27°C° 0 mm 7 mps 754 mmHg 36%
15:00 +26°C° 0 mm 7 mps 754 mmHg 38%
16:00 +24°C° 0 mm 6 mps 755 mmHg 40%
17:00 +23°C° 0 mm 6 mps 756 mmHg 43%
18:00 +22°C° 0 mm 5 mps 756 mmHg 50%
19:00 +21°C° 0 mm 5 mps 757 mmHg 58%
20:00 +20°C° 0 mm 4 mps 758 mmHg 65%
21:00 +20°C° 0 mm 4 mps 758 mmHg 67%
22:00 +19°C° 0 mm 4 mps 759 mmHg 69%
23:00 +19°C° 0 mm 3 mps 759 mmHg 70%

28 September, Monday

Time Temperature Precipitation Wind Pressure Humidity
00:00 +19°C° 0 mm 3 mps 759 mmHg 68%
01:00 +18°C° 0 mm 3 mps 760 mmHg 66%
02:00 +18°C° 0 mm 2 mps 760 mmHg 63%
03:00 +18°C° 0 mm 2 mps 760 mmHg 65%
04:00 +17°C° 0 mm 2 mps 761 mmHg 67%
05:00 +18°C° 0 mm 1 mps 761 mmHg 68%
06:00 +19°C° 0 mm 1 mps 761 mmHg 66%
07:00 +21°C° 0 mm 1 mps 761 mmHg 64%
08:00 +22°C° 0 mm 1 mps 762 mmHg 62%
09:00 +24°C° 0 mm 2 mps 762 mmHg 53%
10:00 +25°C° 0 mm 2 mps 762 mmHg 44%
11:00 +27°C° 0 mm 2 mps 762 mmHg 34%
12:00 +27°C° 0 mm 2 mps 761 mmHg 32%
13:00 +28°C° 0 mm 2 mps 761 mmHg 30%
14:00 +28°C° 0 mm 2 mps 761 mmHg 28%
15:00 +28°C° 0 mm 2 mps 761 mmHg 30%
16:00 +27°C° 0 mm 2 mps 761 mmHg 32%
17:00 +26°C° 0 mm 2 mps 760 mmHg 34%
18:00 +25°C° 0 mm 2 mps 760 mmHg 37%
19:00 +23°C° 0 mm 2 mps 760 mmHg 41%
20:00 +21°C° 0 mm 2 mps 760 mmHg 44%
21:00 +20°C° 0 mm 2 mps 760 mmHg 45%
22:00 +19°C° 0 mm 2 mps 760 mmHg 46%
23:00 +19°C° 0 mm 2 mps 759 mmHg 46%

29 September, Tuesday

Time Temperature Precipitation Wind Pressure Humidity
00:00 +19°C° 0 mm 3 mps 759 mmHg 47%
01:00 +18°C° 0 mm 3 mps 759 mmHg 47%
02:00 +18°C° 0 mm 3 mps 758 mmHg 47%
03:00 +18°C° 0 mm 3 mps 758 mmHg 48%
04:00 +17°C° 0 mm 3 mps 758 mmHg 49%
05:00 +17°C° 0 mm 3 mps 757 mmHg 50%
06:00 +18°C° 0 mm 4 mps 757 mmHg 47%
07:00 +20°C° 0 mm 4 mps 756 mmHg 43%
08:00 +21°C° 0 mm 4 mps 756 mmHg 40%
09:00 +23°C° 0 mm 5 mps 755 mmHg 39%
10:00 +26°C° 0 mm 5 mps 755 mmHg 38%
11:00 +28°C° 0 mm 5 mps 754 mmHg 38%
12:00 +28°C° 0 mm 6 mps 754 mmHg 40%
13:00 +28°C° 0 mm 6 mps 753 mmHg 42%
14:00 +28°C° 0 mm 7 mps 752 mmHg 45%
15:00 +27°C° 0.2 mm 6 mps 752 mmHg 49%
16:00 +26°C° 0.2 mm 6 mps 752 mmHg 52%
17:00 +25°C° 0.2 mm 5 mps 751 mmHg 56%
18:00 +23°C° 0.2 mm 5 mps 751 mmHg 63%
19:00 +22°C° 0.2 mm 5 mps 751 mmHg 69%
20:00 +21°C° 0.2 mm 5 mps 751 mmHg 76%
21:00 +20°C° 0.2 mm 5 mps 751 mmHg 76%
22:00 +20°C° 0.2 mm 4 mps 751 mmHg 77%
23:00 +19°C° 0.2 mm 4 mps 750 mmHg 78%

30 September, Wednesday

Time Temperature Precipitation Wind Pressure Humidity
00:00 +18°C° 0 mm 4 mps 750 mmHg 80%
01:00 +18°C° 0 mm 3 mps 750 mmHg 82%
02:00 +17°C° 0 mm 3 mps 750 mmHg 85%
03:00 +17°C° 0.1 mm 3 mps 750 mmHg 85%
04:00 +16°C° 0.1 mm 3 mps 750 mmHg 86%
05:00 +16°C° 0.1 mm 3 mps 750 mmHg 87%
06:00 +17°C° 0 mm 4 mps 750 mmHg 83%
07:00 +16°C° 0 mm 5 mps 750 mmHg 79%
08:00 +17°C° 0 mm 5 mps 750 mmHg 74%
09:00 +19°C° 0 mm 5 mps 750 mmHg 68%
10:00 +20°C° 0 mm 5 mps 751 mmHg 61%
11:00 +21°C° 0 mm 5 mps 751 mmHg 54%
12:00 +22°C° 0 mm 5 mps 751 mmHg 52%
13:00 +22°C° 0 mm 5 mps 751 mmHg 49%
14:00 +22°C° 0 mm 5 mps 751 mmHg 47%
15:00 +21°C° 0.2 mm 5 mps 750 mmHg 54%
16:00 +20°C° 0.2 mm 4 mps 750 mmHg 62%
17:00 +18°C° 0.2 mm 4 mps 750 mmHg 69%
18:00 +17°C° 0.9 mm 3 mps 750 mmHg 74%
19:00 +17°C° 0.9 mm 3 mps 751 mmHg 79%
20:00 +16°C° 0.9 mm 3 mps 751 mmHg 84%
21:00 +16°C° 0.3 mm 3 mps 751 mmHg 84%
22:00 +16°C° 0.3 mm 2 mps 751 mmHg 85%
23:00 +15°C° 0.3 mm 2 mps 750 mmHg 86%
Show more